| time (UTC) | temp C | wind direction | speed KPH | gust KPH | rain 1hr cm | rain 24hr cm | rain mn cm | humidity % | barometer mb |
| 20260506201540 | 22 | 282 | 11.3 | 27.4 | 0.00 | 0.00 | 0.00 | 45 | 1019.8 |
| 20260506200028 | 22 | 284 | 8.0 | 20.9 | 0.00 | 0.00 | 0.00 | 46 | 1019.8 |
| 20260506194532 | 22 | 278 | 14.5 | 29.0 | 0.00 | 0.00 | 0.00 | 46 | 1019.8 |
| 20260506193104 | 22 | 273 | 11.3 | 22.5 | 0.00 | 0.00 | 0.00 | 47 | 1019.9 |
| 20260506191531 | 22 | 283 | 12.9 | 30.6 | 0.00 | 0.00 | 0.00 | 47 | 1019.9 |
| 20260506190031 | 22 | 284 | 11.3 | 27.4 | 0.00 | 0.00 | 0.00 | 47 | 1019.9 |
| 20260506183147 | 21 | 290 | 6.4 | 16.1 | 0.00 | 0.00 | 0.00 | 50 | 1019.8 |
| 20260506181530 | 21 | 294 | 11.3 | 24.1 | 0.00 | 0.00 | 0.00 | 51 | 1020.0 |
| 20260506180031 | 21 | 299 | 12.9 | 32.2 | 0.00 | 0.00 | 0.00 | 50 | 1019.9 |
| 20260506174529 | 22 | 290 | 14.5 | 29.0 | 0.00 | 0.00 | 0.00 | 47 | 1019.8 |
| 20260506173029 | 22 | 267 | 8.0 | 20.9 | 0.00 | 0.00 | 0.00 | 49 | 1019.6 |
| 20260506171531 | 21 | 280 | 3.2 | 14.5 | 0.00 | 0.00 | 0.00 | 52 | 1019.6 |
| 20260506170030 | 20 | 299 | 8.0 | 16.1 | 0.00 | 0.00 | 0.00 | 54 | 1019.7 |
| 20260506164530 | 19 | 301 | 9.7 | 20.9 | 0.00 | 0.00 | 0.00 | 56 | 1019.7 |
| 20260506163031 | 18 | 279 | 11.3 | 27.4 | 0.00 | 0.00 | 0.00 | 58 | 1020.2 |
| 20260506161529 | 18 | 282 | 11.3 | 22.5 | 0.00 | 0.00 | 0.00 | 59 | 1020.3 |
| 20260506154530 | 19 | 268 | 6.4 | 22.5 | 0.00 | 0.00 | 0.00 | 61 | 1020.1 |
| 20260506153107 | 18 | 116 | 0.0 | 4.8 | 0.00 | 0.00 | 0.00 | 68 | 1020.0 |
| 20260506151530 | 17 | 145 | 1.6 | 4.8 | 0.00 | 0.00 | 0.00 | 76 | 1019.9 |
| 20260506150106 | 16 | 117 | 0.0 | 6.4 | 0.00 | 0.00 | 0.00 | 82 | 1020.2 |
| 20260506144530 | 15 | 131 | 0.0 | 3.2 | 0.00 | 0.00 | 0.00 | 87 | 1020.2 |
| 20260506141646 | 11 | 174 | 1.6 | 4.8 | 0.00 | 0.00 | 0.00 | 93 | 1020.1 |
| 20260506134534 | 8 | 221 | 1.6 | 4.8 | 0.00 | 0.00 | 0.00 | 95 | 1019.7 |
| 20260506133144 | 7 | 182 | 4.8 | 9.7 | 0.00 | 0.00 | 0.00 | 96 | 1019.5 |
| 20260506131531 | 6 | 218 | 6.4 | 17.7 | 0.00 | 0.00 | 0.00 | 96 | 1019.4 |
| 20260506130031 | 6 | 175 | 3.2 | 9.7 | 0.00 | 0.00 | 0.00 | 96 | 1019.3 |
| 20260506124533 | 6 | 144 | 3.2 | 8.0 | 0.00 | 0.00 | 0.00 | 96 | 1019.2 |
| 20260506123037 | 5 | 184 | 0.0 | 6.4 | 0.00 | 0.00 | 0.00 | 96 | 1019.0 |
| 20260506121539 | 5 | 159 | 1.6 | 8.0 | 0.00 | 0.00 | 0.00 | 96 | 1018.8 |
| 20260506120030 | 5 | 158 | 1.6 | 4.8 | 0.00 | 0.00 | 0.00 | 96 | 1018.7 |
| 20260506114603 | 5 | 145 | 1.6 | 6.4 | 0.00 | 0.00 | 0.00 | 95 | 1018.6 |
| 20260506113104 | 5 | 135 | 0.0 | 3.2 | 0.00 | 0.00 | 0.00 | 95 | 1018.4 |
| 20260506110030 | 6 | 138 | 1.6 | 4.8 | 0.00 | 0.00 | 0.00 | 95 | 1018.2 |
| 20260506103032 | 6 | 149 | 1.6 | 6.4 | 0.00 | 0.00 | 0.00 | 95 | 1017.9 |
| 20260506101529 | 6 | 157 | 1.6 | 4.8 | 0.00 | 0.00 | 0.00 | 95 | 1017.9 |
| 20260506100053 | 6 | 146 | 1.6 | 4.8 | 0.00 | 0.00 | 0.00 | 95 | 1017.8 |
| 20260506093145 | 6 | 157 | 1.6 | 3.2 | 0.00 | 0.00 | 0.00 | 94 | 1017.8 |
| 20260506091532 | 6 | 157 | 0.0 | 0.0 | 0.00 | 0.00 | 0.00 | 94 | 1017.7 |
| 20260506090037 | 7 | 157 | 0.0 | 4.8 | 0.00 | 0.00 | 0.00 | 94 | 1017.7 |
| 20260506084530 | 7 | 157 | 0.0 | 4.8 | 0.00 | 0.00 | 0.00 | 94 | 1017.6 |
| 20260506083028 | 7 | 157 | 1.6 | 6.4 | 0.00 | 0.00 | 0.00 | 93 | 1017.5 |
| 20260506081607 | 7 | 157 | 1.6 | 6.4 | 0.00 | 0.00 | 0.00 | 93 | 1017.4 |
| 20260506073032 | 7 | 148 | 0.0 | 4.8 | 0.00 | 0.00 | 0.00 | 92 | 1017.1 |
| 20260506071532 | 8 | 292 | 0.0 | 0.0 | 0.00 | 0.00 | 0.00 | 92 | 1017.0 |
| 20260506061607 | 9 | 157 | 4.8 | 6.4 | 0.00 | 0.00 | 0.00 | 90 | 1016.8 |
| 20260506043028 | 12 | 140 | 3.2 | 6.4 | 0.00 | 0.00 | 0.00 | 79 | 1015.9 |
| 20260506041531 | 13 | 107 | 1.6 | 6.4 | 0.00 | 0.00 | 0.00 | 77 | 1015.8 |
| 20260506034528 | 15 | 109 | 3.2 | 8.0 | 0.00 | 0.00 | 0.00 | 71 | 1015.2 |
| 20260506031608 | 17 | 57 | 3.2 | 9.7 | 0.00 | 0.00 | 0.00 | 63 | 1014.7 |
| 20260506024530 | 19 | 38 | 4.8 | 14.5 | 0.00 | 0.00 | 0.00 | 59 | 1014.3 |
| 20260506023029 | 20 | 41 | 3.2 | 11.3 | 0.00 | 0.00 | 0.00 | 57 | 1014.3 |
| 20260506021531 | 21 | 19 | 4.8 | 14.5 | 0.00 | 0.00 | 0.00 | 54 | 1014.1 |
| 20260506020111 | 22 | 14 | 8.0 | 17.7 | 0.00 | 0.00 | 0.00 | 52 | 1013.9 |
| 20260506014531 | 22 | 11 | 4.8 | 11.3 | 0.00 | 0.00 | 0.00 | 50 | 1013.8 |
| 20260506013029 | 23 | 5 | 4.8 | 11.3 | 0.00 | 0.00 | 0.00 | 48 | 1013.7 |
| 20260506011535 | 25 | 325 | 3.2 | 9.7 | 0.00 | 0.00 | 0.00 | 46 | 1013.7 |
| 20260506004533 | 25 | 287 | 6.4 | 14.5 | 0.00 | 0.00 | 0.00 | 46 | 1013.7 |
| 20260506003029 | 25 | 277 | 8.0 | 20.9 | 0.00 | 0.00 | 0.00 | 46 | 1013.7 |
| 20260506000106 | 26 | 325 | 9.7 | 17.7 | 0.00 | 0.00 | 0.00 | 44 | 1013.7 |
| 20260505234539 | 26 | 319 | 8.0 | 19.3 | 0.00 | 0.00 | 0.00 | 45 | 1013.8 |
| 20260505233103 | 26 | 10 | 6.4 | 12.9 | 0.00 | 0.00 | 0.00 | 44 | 1013.8 |
| 20260505230036 | 25 | 61 | 8.0 | 20.9 | 0.00 | 0.00 | 0.00 | 50 | 1013.9 |
| 20260505223030 | 24 | 53 | 9.7 | 20.9 | 0.00 | 0.00 | 0.00 | 50 | 1014.1 |
| 20260505221531 | 25 | 44 | 9.7 | 22.5 | 0.00 | 0.00 | 0.00 | 48 | 1014.3 |
| 20260505220036 | 24 | 23 | 8.0 | 16.1 | 0.00 | 0.00 | 0.00 | 48 | 1014.3 |
| 20260505213033 | 23 | 25 | 8.0 | 20.9 | 0.00 | 0.00 | 0.00 | 51 | 1014.5 |
| 20260505211530 | 23 | 20 | 8.0 | 17.7 | 0.00 | 0.00 | 0.00 | 52 | 1014.6 |
| 20260505210030 | 22 | 30 | 8.0 | 19.3 | 0.00 | 0.00 | 0.00 | 51 | 1014.8 |
| 20260505203033 | 22 | 7 | 6.4 | 14.5 | 0.00 | 0.00 | 0.00 | 50 | 1015.1 |